Flag for Egypt Weather past 2 weeks in Port Said, Egypt

Now
82 °F

Passing clouds.


Feels Like: 85 °F
Forecast: 76 / 86 °F
Wind: 6 mph from West

Location: Port Said Airport

Current Time: Sep 2, 2014 at 10:52:26 AM

Latest Report: Sep 2, 2014 at 10:00 AM


Visibility: N/A

Pressure: 29.83 "Hg

Humidity: 62%

Dew point: 68 °F

Location of Port SaidLocation

Historic Weather in Port Said — Graph

°F

Port Said temperature yesterday

Maximum temperature yesterday: 86 °F (at 2:00 PM)
Minimum temperature yesterday: 77 °F (at 7:00 AM)
Average temperature yesterday: 82 °F

Past Weeks' High & Low Weather Summary

 TemperatureHumidityPressure
High91 °F (Aug 24, 2:00 PM)100% (Aug 23, 6:00 PM)29.95 "Hg (Aug 23, 6:00 PM)
Low77 °F (Aug 20, 6:00 AM)40% (Aug 22, 11:00 PM)29.68 "Hg (Aug 18, 9:00 AM)
Average83 °F76%29.80 "Hg
* Reported Aug 18 9:00 AM — Sep 2 9:00 AM, Port Said, Weather by CustomWeather, © 2014

Note: Actual official high and low records may vary slightly from our data, if they occured in-between our weather recording intervals... More about our weather records

Advertising

Port Said weather history for previous 24 hours

 ConditionsComfort  
Time TempWeatherWind HumidityBarometerVisibility
9:00 AM
Sep 2
81 °FPassing clouds.7 mph70%29.80 "HgN/A
8:00 AM79 °FScattered clouds.7 mph79%29.80 "HgN/A
7:00 AM77 °FScattered clouds.9 mph83%29.77 "HgN/A
6:00 AM77 °FClear.7 mph83%29.77 "Hg10 mi
5:00 AM79 °FClear.6 mph79%29.77 "Hg10 mi
4:00 AM79 °FClear.N/A79%29.77 "Hg10 mi
3:00 AM79 °FClear.6 mph79%29.80 "Hg10 mi
2:00 AM79 °FClear.7 mph79%29.80 "Hg10 mi
1:00 AM79 °FClear.7 mph79%29.80 "Hg10 mi
12:00 AM79 °FClear.9 mph79%29.80 "Hg10 mi
11:00 PM
Sep 1
79 °FClear.9 mph79%29.80 "Hg10 mi
10:00 PM81 °FPassing clouds.12 mph74%29.80 "HgN/A
9:00 PM81 °FPassing clouds.12 mph74%29.80 "HgN/A
8:00 PM82 °FPassing clouds.12 mph70%29.77 "HgN/A
7:00 PM82 °FSunny.12 mph70%29.77 "Hg10 mi
6:00 PM84 °FSunny.13 mph66%29.77 "Hg10 mi
5:00 PM84 °FSunny.12 mph66%29.77 "Hg10 mi
4:00 PM86 °FSunny.10 mph62%29.77 "Hg10 mi
3:00 PM86 °FSunny.12 mph62%29.80 "Hg10 mi
2:00 PM86 °FSunny.10 mph66%29.80 "Hg10 mi
1:00 PM84 °FSunny.9 mph62%29.80 "Hg10 mi
12:00 PM84 °FScattered clouds.9 mph62%29.83 "HgN/A
11:00 AM84 °FScattered clouds.8 mph62%29.83 "HgN/A
10:00 AM82 °FScattered clouds.7 mph70%29.80 "HgN/A
Weather by CustomWeather, © 2014

See weather overviewHow to use our weather pages